Location: Molveno
(46.1500°N, 10.9667°E)
Time: 17:07:28
(UTC+00:00)

Cosmos 1151 Rocket - Pass Details

Date: 05 July 2020
Orbit: 591 x 617 km, 82.5° (Epoch: 11 August)

Event Time Altitude Azimuth Distance (km) Brightness Sun altitude
Rises 23:33:14 0° 341° (NNW) 2,878 7.7 -21.1°
Reaches altitude 10° 23:35:39 10° 331° (NNW) 1,964 6.4 -21.1°
Maximum altitude 23:39:28 31° 270° (W) 1,074 4.2 -21.1°
Enters shadow 23:40:04 29° 254° (WSW) 1,104 4.1 -21.1°
